User: anonymous   Login
Location: Mount Wilson Observatory
(34.2257°N, 118.0571°W)
Time: 21:52:09
(UTC-07:00)
Language:

ATLAS 3B CENTAUR R/B - Orbit

View from above orbital plane
View from above orbital plane
View from above satellite
View from above satellite

Ground track
Ground track

The orbit data is extracted from the following two-line orbital elements,

1 28118U 03057B   14303.18241918  .00102665  00000-0  24477-2 0  8579
2 28118 028.1376 216.1799 3798667 183.6730 327.4796 07.89019396206141
Epoch (UTC): 30 October 2014 04:22:41
Eccentricity: 0.3798667
inclination: 28.1376°
perigee height: 231 km
apogee height: 8328 km
right ascension of ascending node: 216.1799°
argument of perigee: 183.6730°
revolutions per day: 7.89019396
mean anomaly at epoch: 327.4796°
orbit number at epoch: 20614

The dashed part of the orbit path shows where the satellite is in the earth's shadow,  

DLR